Hourly Weather Kivioli

Today, 23 October, Friday

Time Temperature Precipitation Wind Pressure Humidity
00:00 +10°C° 0 mm 8 mps 742 mmHg 86%
01:00 +9°C° 0 mm 7 mps 743 mmHg 87%
02:00 +9°C° 0 mm 5 mps 743 mmHg 87%
03:00 +9°C° 0.4 mm 5 mps 743 mmHg 88%
04:00 +9°C° 0.4 mm 5 mps 742 mmHg 88%
05:00 +10°C° 0.4 mm 6 mps 742 mmHg 88%
06:00 +10°C° 0 mm 6 mps 742 mmHg 87%
07:00 +10°C° 0 mm 6 mps 741 mmHg 87%
08:00 +10°C° 0 mm 6 mps 741 mmHg 86%
09:00 +10°C° 0 mm 6 mps 741 mmHg 84%
10:00 +10°C° 0 mm 6 mps 741 mmHg 82%
11:00 +12°C° 0 mm 5 mps 740 mmHg 80%
12:00 +11°C° 0.2 mm 6 mps 740 mmHg 79%
13:00 +10°C° 0.2 mm 6 mps 741 mmHg 78%
14:00 +10°C° 0.2 mm 7 mps 741 mmHg 77%
15:00 +3°C° 0.1 mm 4 mps 746 mmHg 85%
16:00 +5°C° 0.1 mm 6 mps 744 mmHg 84%
17:00 +9°C° 0.1 mm 8 mps 742 mmHg 82%
18:00 +8°C° 0 mm 7 mps 743 mmHg 83%
19:00 +8°C° 0 mm 6 mps 744 mmHg 83%
20:00 +7°C° 0 mm 6 mps 745 mmHg 83%
21:00 +7°C° 0 mm 5 mps 745 mmHg 84%
22:00 +6°C° 0 mm 5 mps 746 mmHg 85%
23:00 +6°C° 0 mm 5 mps 746 mmHg 87%

Tomorrow, 24 October, Saturday

Time Temperature Precipitation Wind Pressure Humidity
00:00 +5°C° 0 mm 4 mps 747 mmHg 87%
01:00 +5°C° 0 mm 4 mps 747 mmHg 87%
02:00 +4°C° 0 mm 4 mps 747 mmHg 87%
03:00 +3°C° 0 mm 3 mps 747 mmHg 88%
04:00 +3°C° 0 mm 3 mps 747 mmHg 89%
05:00 +2°C° 0 mm 3 mps 747 mmHg 89%
06:00 +2°C° 0 mm 3 mps 747 mmHg 88%
07:00 +2°C° 0 mm 3 mps 748 mmHg 86%
08:00 +2°C° 0 mm 2 mps 748 mmHg 85%
09:00 +3°C° 0 mm 2 mps 748 mmHg 81%
10:00 +4°C° 0 mm 2 mps 748 mmHg 77%
11:00 +5°C° 0 mm 2 mps 748 mmHg 74%
12:00 +6°C° 0 mm 2 mps 748 mmHg 76%
13:00 +7°C° 0 mm 3 mps 748 mmHg 79%
14:00 +7°C° 0 mm 3 mps 748 mmHg 81%
15:00 +7°C° 0.1 mm 3 mps 748 mmHg 85%
16:00 +7°C° 0.1 mm 3 mps 748 mmHg 88%
17:00 +7°C° 0.1 mm 3 mps 747 mmHg 92%
18:00 +7°C° 0.7 mm 3 mps 747 mmHg 93%
19:00 +7°C° 0.7 mm 2 mps 747 mmHg 94%
20:00 +7°C° 0.7 mm 2 mps 748 mmHg 96%
21:00 +7°C° 0.1 mm 2 mps 748 mmHg 95%
22:00 +7°C° 0.1 mm 3 mps 748 mmHg 94%
23:00 +7°C° 0.1 mm 3 mps 749 mmHg 93%

Day after tomorrow, 25 October, Sunday

Time Temperature Precipitation Wind Pressure Humidity
00:00 +5°C° 0 mm 3 mps 749 mmHg 93%
01:00 +5°C° 0 mm 3 mps 750 mmHg 94%
02:00 +4°C° 0 mm 3 mps 750 mmHg 94%
03:00 +4°C° 0 mm 3 mps 751 mmHg 94%
04:00 +4°C° 0 mm 3 mps 751 mmHg 94%
05:00 +4°C° 0 mm 3 mps 752 mmHg 94%
06:00 +4°C° 0 mm 3 mps 752 mmHg 93%
07:00 +5°C° 0 mm 3 mps 752 mmHg 92%
08:00 +5°C° 0 mm 3 mps 753 mmHg 91%
09:00 +7°C° 0 mm 3 mps 753 mmHg 89%
10:00 +8°C° 0 mm 3 mps 753 mmHg 87%
11:00 +9°C° 0 mm 3 mps 754 mmHg 85%
12:00 +9°C° 0 mm 3 mps 754 mmHg 84%
13:00 +10°C° 0 mm 3 mps 754 mmHg 83%
14:00 +10°C° 0 mm 3 mps 755 mmHg 82%
15:00 +9°C° 0 mm 3 mps 755 mmHg 86%
16:00 +9°C° 0 mm 3 mps 755 mmHg 90%
17:00 +8°C° 0 mm 3 mps 755 mmHg 94%
18:00 +8°C° 0 mm 3 mps 755 mmHg 94%
19:00 +6°C° 0 mm 4 mps 755 mmHg 93%
20:00 +6°C° 0 mm 4 mps 755 mmHg 93%
21:00 +6°C° 0 mm 4 mps 755 mmHg 93%
22:00 +6°C° 0 mm 4 mps 755 mmHg 93%
23:00 +7°C° 0 mm 5 mps 755 mmHg 93%

, 26 October, Monday

Time Temperature Precipitation Wind Pressure Humidity
00:00 +7°C° 0 mm 5 mps 755 mmHg 93%
01:00 +7°C° 0 mm 5 mps 755 mmHg 93%
02:00 +8°C° 0 mm 5 mps 755 mmHg 93%
03:00 +8°C° 0 mm 5 mps 755 mmHg 93%
04:00 +8°C° 0 mm 5 mps 755 mmHg 93%
05:00 +8°C° 0 mm 5 mps 755 mmHg 93%
06:00 +8°C° 0 mm 5 mps 755 mmHg 93%
07:00 +8°C° 0 mm 5 mps 756 mmHg 93%
08:00 +8°C° 0 mm 5 mps 756 mmHg 93%
09:00 +8°C° 0 mm 5 mps 756 mmHg 91%
10:00 +9°C° 0 mm 5 mps 756 mmHg 90%
11:00 +9°C° 0 mm 5 mps 756 mmHg 88%
12:00 +9°C° 0 mm 5 mps 756 mmHg 87%
13:00 +10°C° 0 mm 5 mps 756 mmHg 85%
14:00 +11°C° 0 mm 4 mps 756 mmHg 84%
15:00 +11°C° 0 mm 4 mps 756 mmHg 86%
16:00 +10°C° 0 mm 4 mps 756 mmHg 88%
17:00 +10°C° 0 mm 4 mps 756 mmHg 90%
18:00 +8°C° 0 mm 4 mps 756 mmHg 91%
19:00 +8°C° 0 mm 5 mps 756 mmHg 92%
20:00 +8°C° 0 mm 5 mps 756 mmHg 92%
21:00 +8°C° 0 mm 5 mps 756 mmHg 92%
22:00 +7°C° 0 mm 5 mps 756 mmHg 93%
23:00 +7°C° 0 mm 5 mps 756 mmHg 93%

26 October, Monday

Time Temperature Precipitation Wind Pressure Humidity
00:00 +7°C° 0 mm 5 mps 755 mmHg 93%
01:00 +7°C° 0 mm 5 mps 755 mmHg 93%
02:00 +8°C° 0 mm 5 mps 755 mmHg 93%
03:00 +8°C° 0 mm 5 mps 755 mmHg 93%
04:00 +8°C° 0 mm 5 mps 755 mmHg 93%
05:00 +8°C° 0 mm 5 mps 755 mmHg 93%
06:00 +8°C° 0 mm 5 mps 755 mmHg 93%
07:00 +8°C° 0 mm 5 mps 756 mmHg 93%
08:00 +8°C° 0 mm 5 mps 756 mmHg 93%
09:00 +8°C° 0 mm 5 mps 756 mmHg 91%
10:00 +9°C° 0 mm 5 mps 756 mmHg 90%
11:00 +9°C° 0 mm 5 mps 756 mmHg 88%
12:00 +9°C° 0 mm 5 mps 756 mmHg 87%
13:00 +10°C° 0 mm 5 mps 756 mmHg 85%
14:00 +11°C° 0 mm 4 mps 756 mmHg 84%
15:00 +11°C° 0 mm 4 mps 756 mmHg 86%
16:00 +10°C° 0 mm 4 mps 756 mmHg 88%
17:00 +10°C° 0 mm 4 mps 756 mmHg 90%
18:00 +8°C° 0 mm 4 mps 756 mmHg 91%
19:00 +8°C° 0 mm 5 mps 756 mmHg 92%
20:00 +8°C° 0 mm 5 mps 756 mmHg 92%
21:00 +8°C° 0 mm 5 mps 756 mmHg 92%
22:00 +7°C° 0 mm 5 mps 756 mmHg 93%
23:00 +7°C° 0 mm 5 mps 756 mmHg 93%

27 October, Tuesday

Time Temperature Precipitation Wind Pressure Humidity
00:00 +7°C° 0 mm 5 mps 756 mmHg 93%
01:00 +7°C° 0 mm 5 mps 756 mmHg 92%
02:00 +7°C° 0 mm 5 mps 755 mmHg 91%
03:00 +7°C° 0 mm 5 mps 755 mmHg 91%
04:00 +7°C° 0 mm 6 mps 755 mmHg 91%
05:00 +7°C° 0 mm 6 mps 755 mmHg 91%
06:00 +7°C° 0 mm 6 mps 754 mmHg 90%
07:00 +8°C° 0 mm 5 mps 754 mmHg 90%
08:00 +8°C° 0 mm 5 mps 754 mmHg 89%
09:00 +8°C° 0.1 mm 6 mps 754 mmHg 89%
10:00 +9°C° 0.1 mm 6 mps 754 mmHg 89%
11:00 +9°C° 0.1 mm 6 mps 754 mmHg 89%
12:00 +9°C° 0 mm 5 mps 753 mmHg 89%
13:00 +9°C° 0 mm 5 mps 753 mmHg 89%
14:00 +9°C° 0 mm 5 mps 753 mmHg 89%
15:00 +9°C° 0.1 mm 5 mps 753 mmHg 89%
16:00 +10°C° 0.1 mm 5 mps 753 mmHg 90%
17:00 +10°C° 0.1 mm 5 mps 753 mmHg 91%
18:00 +10°C° 0.1 mm 5 mps 753 mmHg 91%
19:00 +11°C° 0.1 mm 4 mps 753 mmHg 91%
20:00 +11°C° 0.1 mm 4 mps 753 mmHg 91%
21:00 +11°C° 0 mm 4 mps 753 mmHg 91%
22:00 +11°C° 0 mm 4 mps 752 mmHg 91%
23:00 +10°C° 0 mm 5 mps 752 mmHg 91%

28 October, Wednesday

Time Temperature Precipitation Wind Pressure Humidity
00:00 +10°C° 0 mm 5 mps 752 mmHg 91%
01:00 +10°C° 0 mm 5 mps 752 mmHg 91%
02:00 +10°C° 0 mm 5 mps 752 mmHg 92%
03:00 +10°C° 0.1 mm 5 mps 751 mmHg 91%
04:00 +10°C° 0.1 mm 5 mps 751 mmHg 91%
05:00 +10°C° 0.1 mm 5 mps 751 mmHg 90%
06:00 +10°C° 0.5 mm 5 mps 751 mmHg 92%
07:00 +11°C° 0.5 mm 4 mps 752 mmHg 93%
08:00 +11°C° 0.5 mm 4 mps 752 mmHg 94%
09:00 +11°C° 0.6 mm 4 mps 752 mmHg 93%
10:00 +11°C° 0.6 mm 4 mps 753 mmHg 92%
11:00 +11°C° 0.6 mm 3 mps 753 mmHg 92%
12:00 +11°C° 0.1 mm 3 mps 753 mmHg 91%
13:00 +12°C° 0.1 mm 3 mps 754 mmHg 90%
14:00 +12°C° 0.1 mm 3 mps 754 mmHg 88%
15:00 +12°C° 0 mm 2 mps 754 mmHg 90%
16:00 +12°C° 0 mm 2 mps 754 mmHg 92%
17:00 +11°C° 0 mm 1 mps 754 mmHg 94%
18:00 +11°C° 0 mm 1 mps 755 mmHg 95%
19:00 +11°C° 0 mm 1 mps 755 mmHg 96%
20:00 +10°C° 0 mm 1 mps 755 mmHg 96%
21:00 +10°C° 0 mm 2 mps 754 mmHg 96%
22:00 +10°C° 0 mm 2 mps 754 mmHg 96%
23:00 +10°C° 0 mm 2 mps 754 mmHg 96%
Show more